Kaltag, AK

3:46 PM AKDT on June 25, 2017 (GMT -0800)
Kaltag

Weather History for PAKV - April, 2013

Change the Weather History Date:

Tuesday, April 9, 2013

  Actual Average (PAGA) Record (PAGA)
Temperature  
Mean Temperature -5 °F -  
Max Temperature 12 °F 24 °F 53 °F (1997)
Min Temperature -20 °F 5 °F -24 °F (1955)
Degree Days  
Heating Degree Days 70    
Moisture  
Dew Point -14 °F    
Average Humidity 56    
Maximum Humidity 75    
Minimum Humidity 35    
Precipitation  
Precipitation 0.00 in - - ()
Sea Level Pressure  
Sea Level Pressure 29.55 in    
Wind  
Wind Speed 2 mph (NW)    
Max Wind Speed 8 mph    
Max Gust Speed -    
Visibility 10 miles    
Events      
Averages and records for this station are not official NWS values.
T = Trace of Precipitation, MM = Missing Value Source: NWS Daily Summary

Daily Weather History Graph

Daily Weather History Graph

Search for Another Location

Airport or City:

Trip Planner

Search our weather history database for the weather conditions in past years. The results will help you decide how hot, cold, wet, or windy it might be!

Date:

Astronomy

Apr. 09, 2013 Rise Set
Actual Time 7:22 AM AKDT 9:52 PM AKDT
Civil Twilight 6:29 AM AKDT 10:46 PM AKDT
Nautical Twilight 5:15 AM AKDT 12:00 AM AKDT
Astronomical Twilight 3:08 AM AKDT 2:03 AM AKDT
Moon 6:58 AM AKDT (4/9) 9:46 PM AKDT (4/9)
Length of Visible Light 16h 17m
Length of Day
14h 30m
Waning Crescent, 0% of the Moon is Illuminated
Apr 9
Waning Crescent
Apr 10
New
Apr 18
First Quarter
Apr 25
Full
May 2
Last Quarter

Hourly Weather History & Observations

Time (AKDT) Temp. Windchill Dew Point Humidity Pressure Visibility Wind Dir Wind Speed Gust Speed Precip Events Conditions
12:53 AM -9.0 °F - -17.0 °F 68% 29.75 in 10.0 mi Calm Calm - N/A   Clear
1:53 AM -9.9 °F -19.2 °F -18.0 °F 68% 29.73 in 10.0 mi WSW 3.5 mph - N/A   Clear
2:53 AM -8.0 °F -19.2 °F -17.0 °F 65% 29.70 in 10.0 mi SW 4.6 mph - N/A   Clear
3:53 AM -15.0 °F - -20.9 °F 75% 29.69 in 10.0 mi Calm Calm - N/A   Clear
4:53 AM -18.0 °F - -24.0 °F 74% 29.66 in 10.0 mi Calm Calm - N/A   Clear
5:53 AM -20.0 °F -30.7 °F -26.0 °F 74% 29.63 in 10.0 mi SSW 3.5 mph - N/A   Clear
6:53 AM -14.1 °F - -20.0 °F 75% 29.61 in 10.0 mi Calm Calm - N/A   Clear
7:53 AM -18.0 °F - -25.1 °F 70% 29.58 in 10.0 mi Calm Calm - N/A   Clear
8:53 AM -11.9 °F - -18.0 °F 74% 29.56 in 10.0 mi Calm Calm - N/A   Clear
9:53 AM -5.1 °F -17.6 °F -16.1 °F 59% 29.52 in 10.0 mi SW 5.8 mph - N/A   Clear
10:53 AM 1.9 °F - -15.0 °F 45% 29.50 in 10.0 mi Calm Calm - N/A   Clear
11:03 AM 1.4 °F - -14.8 °F 47% 29.48 in 8.0 mi Calm Calm - N/A   Partly Cloudy
11:53 AM 3.9 °F -3.4 °F -15.0 °F 41% 29.49 in 10.0 mi East 3.5 mph - N/A   Clear
12:53 PM 8.1 °F - -14.1 °F 36% 29.47 in 10.0 mi Calm Calm - N/A   Clear
1:53 PM 10.0 °F 0.4 °F -13.0 °F 35% 29.44 in 10.0 mi NE 5.8 mph - N/A   Scattered Clouds
2:53 PM 10.9 °F -0.8 °F -9.9 °F 39% 29.44 in 10.0 mi North 8.1 mph - N/A   Overcast
3:53 PM 10.9 °F 1.4 °F -9.9 °F 39% 29.44 in 10.0 mi Variable 5.8 mph - N/A   Overcast
4:53 PM 10.0 °F 0.4 °F -9.9 °F 40% 29.44 in 10.0 mi NNW 5.8 mph - N/A   Mostly Cloudy
5:53 PM 9.0 °F -0.9 °F -9.9 °F 42% 29.45 in 10.0 mi NW 5.8 mph - N/A   Overcast
6:53 PM 8.1 °F -4.3 °F -6.0 °F 53% 29.46 in 10.0 mi NNW 8.1 mph - N/A   Overcast
7:53 PM 8.1 °F 1.4 °F -8.0 °F 48% 29.48 in 10.0 mi NNW 3.5 mph - N/A   Overcast
8:53 PM 7.0 °F 0.1 °F -9.0 °F 48% 29.49 in 10.0 mi NNW 3.5 mph - N/A   Overcast
9:53 PM 6.1 °F - -8.0 °F 53% 29.52 in 10.0 mi Calm Calm - N/A   Overcast
10:53 PM 3.9 °F - -8.0 °F 58% 29.54 in 10.0 mi Calm Calm - N/A   Overcast
11:53 PM 3.0 °F - -7.1 °F 63% 29.56 in 8.0 mi Calm Calm - N/A   Overcast